Year,Month,Day,Hour,Minute,Value (Times are PST for insolation in W/m^2)
2015,06,04,00,00,0.00
2015,06,04,00,01,0.00
2015,06,04,00,02,0.00
2015,06,04,00,03,0.00
2015,06,04,00,04,0.00
2015,06,04,00,05,0.00
2015,06,04,00,06,0.00
2015,06,04,00,07,0.00
2015,06,04,00,08,0.00
2015,06,04,00,09,0.00
2015,06,04,00,10,0.00
2015,06,04,00,11,0.00
2015,06,04,00,12,0.00
2015,06,04,00,13,0.00
2015,06,04,00,14,0.00
2015,06,04,00,15,0.00
2015,06,04,00,16,0.00
2015,06,04,00,17,0.00
2015,06,04,00,18,0.00
2015,06,04,00,19,0.00
2015,06,04,00,20,0.00
2015,06,04,00,21,0.00
2015,06,04,00,22,0.00
2015,06,04,00,23,0.00
2015,06,04,00,24,0.00
2015,06,04,00,25,0.00
2015,06,04,00,26,0.00
2015,06,04,00,27,0.00
2015,06,04,00,28,0.00
2015,06,04,00,29,0.00
2015,06,04,00,30,0.00
2015,06,04,00,31,0.00
2015,06,04,00,32,0.00
2015,06,04,00,33,0.00
2015,06,04,00,34,0.00
2015,06,04,00,35,0.00
2015,06,04,00,36,0.00
2015,06,04,00,37,0.00
2015,06,04,00,38,0.00
2015,06,04,00,39,0.00
2015,06,04,00,40,0.00
2015,06,04,00,41,0.00
2015,06,04,00,42,0.00
2015,06,04,00,43,0.00
2015,06,04,00,44,0.00
2015,06,04,00,45,0.00
2015,06,04,00,46,0.00
2015,06,04,00,47,0.00
2015,06,04,00,48,0.00
2015,06,04,00,49,0.00
2015,06,04,00,50,0.00
2015,06,04,00,51,0.00
2015,06,04,00,52,0.00
2015,06,04,00,53,0.00
2015,06,04,00,54,0.00
2015,06,04,00,55,0.00
2015,06,04,00,56,0.00
2015,06,04,00,57,0.00
2015,06,04,00,58,0.00
2015,06,04,00,59,0.00
2015,06,04,01,00,0.00
2015,06,04,01,01,0.00
2015,06,04,01,02,0.00
2015,06,04,01,03,0.00
2015,06,04,01,04,0.00
2015,06,04,01,05,0.00
2015,06,04,01,06,0.00
2015,06,04,01,07,0.00
2015,06,04,01,08,0.00
2015,06,04,01,09,0.00
2015,06,04,01,10,0.00
2015,06,04,01,11,0.00
2015,06,04,01,12,0.00
2015,06,04,01,13,0.00
2015,06,04,01,14,0.00
2015,06,04,01,15,0.00
2015,06,04,01,16,0.00
2015,06,04,01,17,0.00
2015,06,04,01,18,0.00
2015,06,04,01,19,0.00
2015,06,04,01,20,0.00
2015,06,04,01,21,0.00
2015,06,04,01,22,0.00
2015,06,04,01,23,0.00
2015,06,04,01,24,0.00
2015,06,04,01,25,0.00
2015,06,04,01,26,0.00
2015,06,04,01,27,0.00
2015,06,04,01,28,0.00
2015,06,04,01,29,0.00
2015,06,04,01,30,0.00
2015,06,04,01,31,0.00
2015,06,04,01,32,0.00
2015,06,04,01,33,0.00
2015,06,04,01,34,0.00
2015,06,04,01,35,0.00
2015,06,04,01,36,0.00
2015,06,04,01,37,0.00
2015,06,04,01,38,0.00
2015,06,04,01,39,0.00
2015,06,04,01,40,0.00
2015,06,04,01,41,0.00
2015,06,04,01,42,0.00
2015,06,04,01,43,0.00
2015,06,04,01,44,0.00
2015,06,04,01,45,0.00
2015,06,04,01,46,0.00
2015,06,04,01,47,0.00
2015,06,04,01,48,0.00
2015,06,04,01,49,0.00
2015,06,04,01,50,0.00
2015,06,04,01,51,0.00
2015,06,04,01,52,0.00
2015,06,04,01,53,0.00
2015,06,04,01,54,0.00
2015,06,04,01,55,0.00
2015,06,04,01,56,0.00
2015,06,04,01,57,0.00
2015,06,04,01,58,0.00
2015,06,04,01,59,0.00
2015,06,04,02,00,0.00
2015,06,04,02,01,0.00
2015,06,04,02,02,0.00
2015,06,04,02,03,0.00
2015,06,04,02,04,0.00
2015,06,04,02,05,0.00
2015,06,04,02,06,0.00
2015,06,04,02,07,0.00
2015,06,04,02,08,0.00
2015,06,04,02,09,0.00
2015,06,04,02,10,0.00
2015,06,04,02,11,0.00
2015,06,04,02,12,0.00
2015,06,04,02,13,0.00
2015,06,04,02,14,0.00
2015,06,04,02,15,0.00
2015,06,04,02,16,0.00
2015,06,04,02,17,0.00
2015,06,04,02,18,0.00
2015,06,04,02,19,0.00
2015,06,04,02,20,0.00
2015,06,04,02,21,0.00
2015,06,04,02,22,0.00
2015,06,04,02,23,0.00
2015,06,04,02,24,0.00
2015,06,04,02,25,0.00
2015,06,04,02,26,0.00
2015,06,04,02,27,0.00
2015,06,04,02,28,0.00
2015,06,04,02,29,0.00
2015,06,04,02,30,0.00
2015,06,04,02,31,0.00
2015,06,04,02,32,0.00
2015,06,04,02,33,0.00
2015,06,04,02,34,0.00
2015,06,04,02,35,0.00
2015,06,04,02,36,0.00
2015,06,04,02,37,0.00
2015,06,04,02,38,0.00
2015,06,04,02,39,0.00
2015,06,04,02,40,0.00
2015,06,04,02,41,0.00
2015,06,04,02,42,0.00
2015,06,04,02,43,0.00
2015,06,04,02,44,0.00
2015,06,04,02,45,0.00
2015,06,04,02,46,0.00
2015,06,04,02,47,0.00
2015,06,04,02,48,0.00
2015,06,04,02,49,0.00
2015,06,04,02,50,0.00
2015,06,04,02,51,0.00
2015,06,04,02,52,0.00
2015,06,04,02,53,0.00
2015,06,04,02,54,0.00
2015,06,04,02,55,0.00
2015,06,04,02,56,0.00
2015,06,04,02,57,0.00
2015,06,04,02,58,0.00
2015,06,04,02,59,0.00
2015,06,04,03,00,0.00
2015,06,04,03,01,0.00
2015,06,04,03,02,0.00
2015,06,04,03,03,0.00
2015,06,04,03,04,0.00
2015,06,04,03,05,0.00
2015,06,04,03,06,0.00
2015,06,04,03,07,0.00
2015,06,04,03,08,0.00
2015,06,04,03,09,0.00
2015,06,04,03,10,0.00
2015,06,04,03,11,0.00
2015,06,04,03,12,0.00
2015,06,04,03,13,0.00
2015,06,04,03,14,0.00
2015,06,04,03,15,0.00
2015,06,04,03,16,0.00
2015,06,04,03,17,0.00
2015,06,04,03,18,0.00
2015,06,04,03,19,0.00
2015,06,04,03,20,0.00
2015,06,04,03,21,0.00
2015,06,04,03,22,0.00
2015,06,04,03,23,0.00
2015,06,04,03,24,0.00
2015,06,04,03,25,0.00
2015,06,04,03,26,0.00
2015,06,04,03,27,0.00
2015,06,04,03,28,0.00
2015,06,04,03,29,0.00
2015,06,04,03,30,0.00
2015,06,04,03,31,0.00
2015,06,04,03,32,0.00
2015,06,04,03,33,0.00
2015,06,04,03,34,0.00
2015,06,04,03,35,0.00
2015,06,04,03,36,0.00
2015,06,04,03,37,0.00
2015,06,04,03,38,0.00
2015,06,04,03,39,0.00
2015,06,04,03,40,0.00
2015,06,04,03,41,0.00
2015,06,04,03,42,0.00
2015,06,04,03,43,0.00
2015,06,04,03,44,0.00
2015,06,04,03,45,0.00
2015,06,04,03,46,0.00
2015,06,04,03,47,0.00
2015,06,04,03,48,0.00
2015,06,04,03,49,0.00
2015,06,04,03,50,0.00
2015,06,04,03,51,0.00
2015,06,04,03,52,0.00
2015,06,04,03,53,0.00
2015,06,04,03,54,0.00
2015,06,04,03,55,0.00
2015,06,04,03,56,0.00
2015,06,04,03,57,0.00
2015,06,04,03,58,0.00
2015,06,04,03,59,0.00
2015,06,04,04,00,0.00
2015,06,04,04,01,0.00
2015,06,04,04,02,0.00
2015,06,04,04,03,0.00
2015,06,04,04,04,0.00
2015,06,04,04,05,0.00
2015,06,04,04,06,0.00
2015,06,04,04,07,0.00
2015,06,04,04,08,0.00
2015,06,04,04,09,0.00
2015,06,04,04,10,0.00
2015,06,04,04,11,0.00
2015,06,04,04,12,0.00
2015,06,04,04,13,0.00
2015,06,04,04,14,0.00
2015,06,04,04,15,0.00
2015,06,04,04,16,0.00
2015,06,04,04,17,0.00
2015,06,04,04,18,0.00
2015,06,04,04,19,0.00
2015,06,04,04,20,0.00
2015,06,04,04,21,0.00
2015,06,04,04,22,0.00
2015,06,04,04,23,0.00
2015,06,04,04,24,0.00
2015,06,04,04,25,0.00
2015,06,04,04,26,0.00
2015,06,04,04,27,0.00
2015,06,04,04,28,0.00
2015,06,04,04,29,0.00
2015,06,04,04,30,0.00
2015,06,04,04,31,0.00
2015,06,04,04,32,0.00
2015,06,04,04,33,0.00
2015,06,04,04,34,0.00
2015,06,04,04,35,0.00
2015,06,04,04,36,0.00
2015,06,04,04,37,0.00
2015,06,04,04,38,0.00
2015,06,04,04,39,0.00
2015,06,04,04,40,0.00
2015,06,04,04,41,0.00
2015,06,04,04,42,0.00
2015,06,04,04,43,0.00
2015,06,04,04,44,0.00
2015,06,04,04,45,0.00
2015,06,04,04,46,0.00
2015,06,04,04,47,0.00
2015,06,04,04,48,0.00
2015,06,04,04,49,0.00
2015,06,04,04,50,0.00
2015,06,04,04,51,0.00
2015,06,04,04,52,0.00
2015,06,04,04,53,0.00
2015,06,04,04,54,0.00
2015,06,04,04,55,0.00
2015,06,04,04,56,0.00
2015,06,04,04,57,0.00
2015,06,04,04,58,0.00
2015,06,04,04,59,0.00
2015,06,04,05,00,0.00
2015,06,04,05,01,0.00
2015,06,04,05,02,0.00
2015,06,04,05,03,0.00
2015,06,04,05,04,0.00
2015,06,04,05,05,0.00
2015,06,04,05,06,0.00
2015,06,04,05,07,0.00
2015,06,04,05,08,0.00
2015,06,04,05,09,0.00
2015,06,04,05,10,0.00
2015,06,04,05,11,0.00
2015,06,04,05,12,0.00
2015,06,04,05,13,0.00
2015,06,04,05,14,0.00
2015,06,04,05,15,0.00
2015,06,04,05,16,0.00
2015,06,04,05,17,0.00
2015,06,04,05,18,0.00
2015,06,04,05,19,0.00
2015,06,04,05,20,0.00
2015,06,04,05,21,0.00
2015,06,04,05,22,0.00
2015,06,04,05,23,0.00
2015,06,04,05,24,0.00
2015,06,04,05,25,0.00
2015,06,04,05,26,4.80
2015,06,04,05,27,5.00
2015,06,04,05,28,5.00
2015,06,04,05,29,5.00
2015,06,04,05,30,5.00
2015,06,04,05,31,5.00
2015,06,04,05,32,6.40
2015,06,04,05,33,7.00
2015,06,04,05,34,7.00
2015,06,04,05,35,9.00
2015,06,04,05,36,9.00
2015,06,04,05,37,9.00
2015,06,04,05,38,9.80
2015,06,04,05,39,11.00
2015,06,04,05,40,11.00
2015,06,04,05,41,11.80
2015,06,04,05,42,12.00
2015,06,04,05,43,13.80
2015,06,04,05,44,14.00
2015,06,04,05,45,14.00
2015,06,04,05,46,14.00
2015,06,04,05,47,14.00
2015,06,04,05,48,14.00
2015,06,04,05,49,15.30
2015,06,04,05,50,16.00
2015,06,04,05,51,17.70
2015,06,04,05,52,18.00
2015,06,04,05,53,18.00
2015,06,04,05,54,18.00
2015,06,04,05,55,18.00
2015,06,04,05,56,18.00
2015,06,04,05,57,18.00
2015,06,04,05,58,18.00
2015,06,04,05,59,18.00
2015,06,04,06,00,18.00
2015,06,04,06,01,18.00
2015,06,04,06,02,18.00
2015,06,04,06,03,18.00
2015,06,04,06,04,18.00
2015,06,04,06,05,18.00
2015,06,04,06,06,18.60
2015,06,04,06,07,19.00
2015,06,04,06,08,19.00
2015,06,04,06,09,21.20
2015,06,04,06,10,23.30
2015,06,04,06,11,25.20
2015,06,04,06,12,26.80
2015,06,04,06,13,28.00
2015,06,04,06,14,29.20
2015,06,04,06,15,31.50
2015,06,04,06,16,32.80
2015,06,04,06,17,33.00
2015,06,04,06,18,33.00
2015,06,04,06,19,33.00
2015,06,04,06,20,33.00
2015,06,04,06,21,33.00
2015,06,04,06,22,34.00
2015,06,04,06,23,35.00
2015,06,04,06,24,35.00
2015,06,04,06,25,36.60
2015,06,04,06,26,37.10
2015,06,04,06,27,39.00
2015,06,04,06,28,39.30
2015,06,04,06,29,40.00
2015,06,04,06,30,40.00
2015,06,04,06,31,40.00
2015,06,04,06,32,40.00
2015,06,04,06,33,40.00
2015,06,04,06,34,40.00
2015,06,04,06,35,40.00
2015,06,04,06,36,40.40
2015,06,04,06,37,43.20
2015,06,04,06,38,46.40
2015,06,04,06,39,49.00
2015,06,04,06,40,52.80
2015,06,04,06,41,55.40
2015,06,04,06,42,56.00
2015,06,04,06,43,57.90
2015,06,04,06,44,60.30
2015,06,04,06,45,62.20
2015,06,04,06,46,63.70
2015,06,04,06,47,65.00
2015,06,04,06,48,66.10
2015,06,04,06,49,68.40
2015,06,04,06,50,69.00
2015,06,04,06,51,69.80
2015,06,04,06,52,72.10
2015,06,04,06,53,74.40
2015,06,04,06,54,76.20
2015,06,04,06,55,77.80
2015,06,04,06,56,79.00
2015,06,04,06,57,80.20
2015,06,04,06,58,82.40
2015,06,04,06,59,83.80
2015,06,04,07,00,84.00
2015,06,04,07,01,84.60
2015,06,04,07,02,90.20
2015,06,04,07,03,91.60
2015,06,04,07,04,93.00
2015,06,04,07,05,94.10
2015,06,04,07,06,96.20
2015,06,04,07,07,97.00
2015,06,04,07,08,97.80
2015,06,04,07,09,101.90
2015,06,04,07,10,105.30
2015,06,04,07,11,108.00
2015,06,04,07,12,111.70
2015,06,04,07,13,113.00
2015,06,04,07,14,113.00
2015,06,04,07,15,113.00
2015,06,04,07,16,111.40
2015,06,04,07,17,109.30
2015,06,04,07,18,108.80
2015,06,04,07,19,106.60
2015,06,04,07,20,104.70
2015,06,04,07,21,103.20
2015,06,04,07,22,101.00
2015,06,04,07,23,100.00
2015,06,04,07,24,101.40
2015,06,04,07,25,103.70
2015,06,04,07,26,104.90
2015,06,04,07,27,105.60
2015,06,04,07,28,109.50
2015,06,04,07,29,111.70
2015,06,04,07,30,114.40
2015,06,04,07,31,117.10
2015,06,04,07,32,118.00
2015,06,04,07,33,118.00
2015,06,04,07,34,120.60
2015,06,04,07,35,123.30
2015,06,04,07,36,127.60
2015,06,04,07,37,131.10
2015,06,04,07,38,135.20
2015,06,04,07,39,138.00
2015,06,04,07,40,140.20
2015,06,04,07,41,141.70
2015,06,04,07,42,142.00
2015,06,04,07,43,142.00
2015,06,04,07,44,142.00
2015,06,04,07,45,142.40
2015,06,04,07,46,144.00
2015,06,04,07,47,144.80
2015,06,04,07,48,147.10
2015,06,04,07,49,148.60
2015,06,04,07,50,149.00
2015,06,04,07,51,149.00
2015,06,04,07,52,148.10
2015,06,04,07,53,148.00
2015,06,04,07,54,148.00
2015,06,04,07,55,148.00
2015,06,04,07,56,148.00
2015,06,04,07,57,148.00
2015,06,04,07,58,148.60
2015,06,04,07,59,149.00
2015,06,04,08,00,148.10
2015,06,04,08,01,147.80
2015,06,04,08,02,143.60
2015,06,04,08,03,141.10
2015,06,04,08,04,138.20
2015,06,04,08,05,136.00
2015,06,04,08,06,134.40
2015,06,04,08,07,132.60
2015,06,04,08,08,130.40
2015,06,04,08,09,128.10
2015,06,04,08,10,128.00
2015,06,04,08,11,128.00
2015,06,04,08,12,128.00
2015,06,04,08,13,128.00
2015,06,04,08,14,128.00
2015,06,04,08,15,128.00
2015,06,04,08,16,129.50
2015,06,04,08,17,130.00
2015,06,04,08,18,131.90
2015,06,04,08,19,132.40
2015,06,04,08,20,134.80
2015,06,04,08,21,137.80
2015,06,04,08,22,140.50
2015,06,04,08,23,144.40
2015,06,04,08,24,148.10
2015,06,04,08,25,150.60
2015,06,04,08,26,152.80
2015,06,04,08,27,153.30
2015,06,04,08,28,155.00
2015,06,04,08,29,154.40
2015,06,04,08,30,153.00
2015,06,04,08,31,153.00
2015,06,04,08,32,153.00
2015,06,04,08,33,153.00
2015,06,04,08,34,153.00
2015,06,04,08,35,153.10
2015,06,04,08,36,155.00
2015,06,04,08,37,155.20
2015,06,04,08,38,156.70
2015,06,04,08,39,158.00
2015,06,04,08,40,159.20
2015,06,04,08,41,160.00
2015,06,04,08,42,160.00
2015,06,04,08,43,160.00
2015,06,04,08,44,160.00
2015,06,04,08,45,160.40
2015,06,04,08,46,162.00
2015,06,04,08,47,162.00
2015,06,04,08,48,162.50
2015,06,04,08,49,164.20
2015,06,04,08,50,166.40
2015,06,04,08,51,167.00
2015,06,04,08,52,168.90
2015,06,04,08,53,171.00
2015,06,04,08,54,171.00
2015,06,04,08,55,171.40
2015,06,04,08,56,172.00
2015,06,04,08,57,173.10
2015,06,04,08,58,175.30
2015,06,04,08,59,177.50
2015,06,04,09,00,178.90
2015,06,04,09,01,180.90
2015,06,04,09,02,181.30
2015,06,04,09,03,183.00
2015,06,04,09,04,183.00
2015,06,04,09,05,183.00
2015,06,04,09,06,183.00
2015,06,04,09,07,183.00
2015,06,04,09,08,184.50
2015,06,04,09,09,185.90
2015,06,04,09,10,186.00
2015,06,04,09,11,186.00
2015,06,04,09,12,186.00
2015,06,04,09,13,186.00
2015,06,04,09,14,186.00
2015,06,04,09,15,186.00
2015,06,04,09,16,186.00
2015,06,04,09,17,187.70
2015,06,04,09,18,190.10
2015,06,04,09,19,193.60
2015,06,04,09,20,197.50
2015,06,04,09,21,200.10
2015,06,04,09,22,203.80
2015,06,04,09,23,207.80
2015,06,04,09,24,212.50
2015,06,04,09,25,217.20
2015,06,04,09,26,220.70
2015,06,04,09,27,227.20
2015,06,04,09,28,229.60
2015,06,04,09,29,232.00
2015,06,04,09,30,232.80
2015,06,04,09,31,234.00
2015,06,04,09,32,235.20
2015,06,04,09,33,236.00
2015,06,04,09,34,234.30
2015,06,04,09,35,234.00
2015,06,04,09,36,234.20
2015,06,04,09,37,236.20
2015,06,04,09,38,237.60
2015,06,04,09,39,241.00
2015,06,04,09,40,247.30
2015,06,04,09,41,251.90
2015,06,04,09,42,255.90
2015,06,04,09,43,259.50
2015,06,04,09,44,262.10
2015,06,04,09,45,264.20
2015,06,04,09,46,265.50
2015,06,04,09,47,268.40
2015,06,04,09,48,272.50
2015,06,04,09,49,276.40
2015,06,04,09,50,280.10
2015,06,04,09,51,284.20
2015,06,04,09,52,289.50
2015,06,04,09,53,294.30
2015,06,04,09,54,298.20
2015,06,04,09,55,303.20
2015,06,04,09,56,307.40
2015,06,04,09,57,310.00
2015,06,04,09,58,312.30
2015,06,04,09,59,313.00
2015,06,04,10,00,313.00
2015,06,04,10,01,313.10
2015,06,04,10,02,315.10
2015,06,04,10,03,317.50
2015,06,04,10,04,323.10
2015,06,04,10,05,326.80
2015,06,04,10,06,332.00
2015,06,04,10,07,335.40
2015,06,04,10,08,337.60
2015,06,04,10,09,338.90
2015,06,04,10,10,339.00
2015,06,04,10,11,339.40
2015,06,04,10,12,341.60
2015,06,04,10,13,343.90
2015,06,04,10,14,345.50
2015,06,04,10,15,347.20
2015,06,04,10,16,348.00
2015,06,04,10,17,349.60
2015,06,04,10,18,351.90
2015,06,04,10,19,353.30
2015,06,04,10,20,356.00
2015,06,04,10,21,360.00
2015,06,04,10,22,362.90
2015,06,04,10,23,365.10
2015,06,04,10,24,366.00
2015,06,04,10,25,366.00
2015,06,04,10,26,366.00
2015,06,04,10,27,362.00
2015,06,04,10,28,360.00
2015,06,04,10,29,361.20
2015,06,04,10,30,366.00
2015,06,04,10,31,371.50
2015,06,04,10,32,378.20
2015,06,04,10,33,385.90
2015,06,04,10,34,392.80
2015,06,04,10,35,398.50
2015,06,04,10,36,404.30
2015,06,04,10,37,407.00
2015,06,04,10,38,411.60
2015,06,04,10,39,417.20
2015,06,04,10,40,424.70
2015,06,04,10,41,435.00
2015,06,04,10,42,445.80
2015,06,04,10,43,453.10
2015,06,04,10,44,455.00
2015,06,04,10,45,457.30
2015,06,04,10,46,460.80
2015,06,04,10,47,469.70
2015,06,04,10,48,481.90
2015,06,04,10,49,495.60
2015,06,04,10,50,505.90
2015,06,04,10,51,509.60
2015,06,04,10,52,508.30
2015,06,04,10,53,512.40
2015,06,04,10,54,524.60
2015,06,04,10,55,528.20
2015,06,04,10,56,533.00
2015,06,04,10,57,532.50
2015,06,04,10,58,529.00
2015,06,04,10,59,526.90
2015,06,04,11,00,530.20
2015,06,04,11,01,571.50
2015,06,04,11,02,638.00
2015,06,04,11,03,670.50
2015,06,04,11,04,768.00
2015,06,04,11,05,860.80
2015,06,04,11,06,980.80
2015,06,04,11,07,965.00
2015,06,04,11,08,1144.30
2015,06,04,11,09,1207.50
2015,06,04,11,10,1235.40
2015,06,04,11,11,1220.00
2015,06,04,11,12,1220.00
2015,06,04,11,13,959.20
2015,06,04,11,14,557.50
2015,06,04,11,15,557.20
2015,06,04,11,16,564.00
2015,06,04,11,17,564.00
2015,06,04,11,18,685.70
2015,06,04,11,19,691.00
2015,06,04,11,20,724.40
2015,06,04,11,21,860.50
2015,06,04,11,22,865.00
2015,06,04,11,23,865.00
2015,06,04,11,24,950.30
2015,06,04,11,25,994.80
2015,06,04,11,26,935.20
2015,06,04,11,27,914.40
2015,06,04,11,28,724.00
2015,06,04,11,29,785.70
2015,06,04,11,30,975.30
2015,06,04,11,31,952.10
2015,06,04,11,32,931.00
2015,06,04,11,33,915.90
2015,06,04,11,34,904.00
2015,06,04,11,35,893.90
2015,06,04,11,36,886.00
2015,06,04,11,37,886.40
2015,06,04,11,38,886.20
2015,06,04,11,39,881.60
2015,06,04,11,40,881.50
2015,06,04,11,41,881.40
2015,06,04,11,42,879.60
2015,06,04,11,43,877.30
2015,06,04,11,44,880.80
2015,06,04,11,45,881.80
2015,06,04,11,46,881.20
2015,06,04,11,47,881.70
2015,06,04,11,48,881.50
2015,06,04,11,49,883.10
2015,06,04,11,50,884.00
2015,06,04,11,51,885.50
2015,06,04,11,52,886.00
2015,06,04,11,53,887.90
2015,06,04,11,54,888.00
2015,06,04,11,55,891.20
2015,06,04,11,56,895.80
2015,06,04,11,57,891.00
2015,06,04,11,58,893.00
2015,06,04,11,59,894.40
2015,06,04,12,00,895.80
2015,06,04,12,01,895.10
2015,06,04,12,02,899.00
2015,06,04,12,03,903.90
2015,06,04,12,04,900.00
2015,06,04,12,05,901.80
2015,06,04,12,06,904.00
2015,06,04,12,07,906.00
2015,06,04,12,08,908.50
2015,06,04,12,09,913.20
2015,06,04,12,10,912.20
2015,06,04,12,11,914.00
2015,06,04,12,12,914.00
2015,06,04,12,13,913.20
2015,06,04,12,14,913.90
2015,06,04,12,15,917.70
2015,06,04,12,16,919.00
2015,06,04,12,17,923.50
2015,06,04,12,18,931.30
2015,06,04,12,19,950.20
2015,06,04,12,20,982.60
2015,06,04,12,21,981.20
2015,06,04,12,22,947.00
2015,06,04,12,23,947.00
2015,06,04,12,24,947.00
2015,06,04,12,25,947.00
2015,06,04,12,26,947.00
2015,06,04,12,27,946.20
2015,06,04,12,28,930.20
2015,06,04,12,29,932.00
2015,06,04,12,30,932.30
2015,06,04,12,31,933.00
2015,06,04,12,32,934.10
2015,06,04,12,33,933.70
2015,06,04,12,34,932.20
2015,06,04,12,35,930.30
2015,06,04,12,36,931.80
2015,06,04,12,37,930.00
2015,06,04,12,38,930.00
2015,06,04,12,39,930.00
2015,06,04,12,40,929.00
2015,06,04,12,41,926.80
2015,06,04,12,42,926.00
2015,06,04,12,43,923.60
2015,06,04,12,44,925.70
2015,06,04,12,45,926.00
2015,06,04,12,46,926.00
2015,06,04,12,47,926.60
2015,06,04,12,48,926.80
2015,06,04,12,49,925.50
2015,06,04,12,50,926.00
2015,06,04,12,51,927.40
2015,06,04,12,52,928.00
2015,06,04,12,53,928.10
2015,06,04,12,54,930.30
2015,06,04,12,55,932.20
2015,06,04,12,56,932.70
2015,06,04,12,57,932.50
2015,06,04,12,58,933.00
2015,06,04,12,59,934.40
2015,06,04,13,00,938.00
2015,06,04,13,01,939.00
2015,06,04,13,02,939.00
2015,06,04,13,03,939.20
2015,06,04,13,04,940.00
2015,06,04,13,05,939.60
2015,06,04,13,06,938.10
2015,06,04,13,07,938.90
2015,06,04,13,08,940.00
2015,06,04,13,09,943.20
2015,06,04,13,10,944.00
2015,06,04,13,11,944.30
2015,06,04,13,12,946.20
2015,06,04,13,13,947.70
2015,06,04,13,14,948.10
2015,06,04,13,15,948.00
2015,06,04,13,16,947.70
2015,06,04,13,17,948.50
2015,06,04,13,18,947.30
2015,06,04,13,19,946.50
2015,06,04,13,20,942.80
2015,06,04,13,21,945.40
2015,06,04,13,22,942.50
2015,06,04,13,23,940.00
2015,06,04,13,24,941.10
2015,06,04,13,25,942.00
2015,06,04,13,26,939.80
2015,06,04,13,27,939.80
2015,06,04,13,28,942.00
2015,06,04,13,29,942.40
2015,06,04,13,30,944.00
2015,06,04,13,31,942.00
2015,06,04,13,32,939.50
2015,06,04,13,33,940.00
2015,06,04,13,34,941.40
2015,06,04,13,35,942.00
2015,06,04,13,36,945.80
2015,06,04,13,37,945.40
2015,06,04,13,38,941.20
2015,06,04,13,39,937.60
2015,06,04,13,40,932.80
2015,06,04,13,41,932.60
2015,06,04,13,42,933.60
2015,06,04,13,43,933.00
2015,06,04,13,44,932.20
2015,06,04,13,45,928.40
2015,06,04,13,46,930.40
2015,06,04,13,47,932.30
2015,06,04,13,48,932.60
2015,06,04,13,49,934.50
2015,06,04,13,50,935.80
2015,06,04,13,51,933.60
2015,06,04,13,52,933.00
2015,06,04,13,53,933.00
2015,06,04,13,54,929.80
2015,06,04,13,55,928.00
2015,06,04,13,56,928.00
2015,06,04,13,57,928.80
2015,06,04,13,58,929.00
2015,06,04,13,59,929.30
2015,06,04,14,00,928.60
2015,06,04,14,01,929.80
2015,06,04,14,02,930.20
2015,06,04,14,03,932.20
2015,06,04,14,04,932.80
2015,06,04,14,05,929.60
2015,06,04,14,06,930.00
2015,06,04,14,07,937.40
2015,06,04,14,08,936.30
2015,06,04,14,09,938.20
2015,06,04,14,10,939.90
2015,06,04,14,11,946.50
2015,06,04,14,12,951.70
2015,06,04,14,13,955.90
2015,06,04,14,14,958.40
2015,06,04,14,15,952.20
2015,06,04,14,16,942.50
2015,06,04,14,17,934.60
2015,06,04,14,18,930.60
2015,06,04,14,19,938.20
2015,06,04,14,20,939.00
2015,06,04,14,21,929.50
2015,06,04,14,22,918.60
2015,06,04,14,23,915.00
2015,06,04,14,24,911.50
2015,06,04,14,25,908.20
2015,06,04,14,26,905.50
2015,06,04,14,27,902.40
2015,06,04,14,28,901.80
2015,06,04,14,29,900.00
2015,06,04,14,30,898.70
2015,06,04,14,31,896.00
2015,06,04,14,32,895.50
2015,06,04,14,33,895.00
2015,06,04,14,34,893.60
2015,06,04,14,35,895.40
2015,06,04,14,36,895.80
2015,06,04,14,37,893.00
2015,06,04,14,38,891.80
2015,06,04,14,39,887.40
2015,06,04,14,40,886.00
2015,06,04,14,41,883.20
2015,06,04,14,42,878.40
2015,06,04,14,43,877.00
2015,06,04,14,44,875.20
2015,06,04,14,45,874.80
2015,06,04,14,46,871.70
2015,06,04,14,47,869.40
2015,06,04,14,48,868.00
2015,06,04,14,49,867.50
2015,06,04,14,50,865.80
2015,06,04,14,51,865.00
2015,06,04,14,52,861.00
2015,06,04,14,53,860.90
2015,06,04,14,54,860.90
2015,06,04,14,55,859.50
2015,06,04,14,56,857.30
2015,06,04,14,57,856.00
2015,06,04,14,58,856.00
2015,06,04,14,59,854.70
2015,06,04,15,00,855.40
2015,06,04,15,01,853.50
2015,06,04,15,02,852.80
2015,06,04,15,03,849.00
2015,06,04,15,04,848.40
2015,06,04,15,05,845.90
2015,06,04,15,06,844.00
2015,06,04,15,07,844.00
2015,06,04,15,08,842.60
2015,06,04,15,09,838.80
2015,06,04,15,10,838.00
2015,06,04,15,11,838.00
2015,06,04,15,12,837.80
2015,06,04,15,13,837.20
2015,06,04,15,14,836.10
2015,06,04,15,15,833.00
2015,06,04,15,16,833.00
2015,06,04,15,17,831.50
2015,06,04,15,18,830.20
2015,06,04,15,19,826.20
2015,06,04,15,20,825.70
2015,06,04,15,21,822.50
2015,06,04,15,22,819.70
2015,06,04,15,23,816.60
2015,06,04,15,24,814.90
2015,06,04,15,25,812.70
2015,06,04,15,26,812.00
2015,06,04,15,27,810.30
2015,06,04,15,28,809.00
2015,06,04,15,29,808.20
2015,06,04,15,30,805.00
2015,06,04,15,31,804.30
2015,06,04,15,32,802.50
2015,06,04,15,33,802.00
2015,06,04,15,34,802.00
2015,06,04,15,35,800.40
2015,06,04,15,36,798.20
2015,06,04,15,37,796.20
2015,06,04,15,38,797.60
2015,06,04,15,39,795.10
2015,06,04,15,40,793.00
2015,06,04,15,41,793.00
2015,06,04,15,42,790.40
2015,06,04,15,43,788.20
2015,06,04,15,44,788.80
2015,06,04,15,45,790.70
2015,06,04,15,46,788.00
2015,06,04,15,47,779.50
2015,06,04,15,48,770.50
2015,06,04,15,49,768.00
2015,06,04,15,50,765.10
2015,06,04,15,51,764.30
2015,06,04,15,52,765.00
2015,06,04,15,53,763.30
2015,06,04,15,54,756.00
2015,06,04,15,55,756.00
2015,06,04,15,56,755.50
2015,06,04,15,57,753.20
2015,06,04,15,58,751.50
2015,06,04,15,59,751.60
2015,06,04,16,00,759.70
2015,06,04,16,01,767.00
2015,06,04,16,02,753.10
2015,06,04,16,03,741.70
2015,06,04,16,04,740.00
2015,06,04,16,05,736.20
2015,06,04,16,06,729.00
2015,06,04,16,07,726.20
2015,06,04,16,08,724.00
2015,06,04,16,09,721.80
2015,06,04,16,10,721.80
2015,06,04,16,11,722.10
2015,06,04,16,12,722.50
2015,06,04,16,13,714.00
2015,06,04,16,14,712.40
2015,06,04,16,15,708.50
2015,06,04,16,16,705.80
2015,06,04,16,17,702.40
2015,06,04,16,18,701.00
2015,06,04,16,19,702.80
2015,06,04,16,20,705.70
2015,06,04,16,21,714.00
2015,06,04,16,22,724.70
2015,06,04,16,23,696.30
2015,06,04,16,24,670.30
2015,06,04,16,25,686.40
2015,06,04,16,26,684.60
2015,06,04,16,27,680.60
2015,06,04,16,28,678.80
2015,06,04,16,29,674.70
2015,06,04,16,30,672.20
2015,06,04,16,31,669.20
2015,06,04,16,32,667.10
2015,06,04,16,33,664.30
2015,06,04,16,34,665.00
2015,06,04,16,35,667.50
2015,06,04,16,36,661.70
2015,06,04,16,37,656.00
2015,06,04,16,38,656.60
2015,06,04,16,39,659.60
2015,06,04,16,40,637.80
2015,06,04,16,41,606.00
2015,06,04,16,42,606.00
2015,06,04,16,43,631.20
2015,06,04,16,44,642.00
2015,06,04,16,45,638.20
2015,06,04,16,46,634.70
2015,06,04,16,47,632.50
2015,06,04,16,48,630.30
2015,06,04,16,49,629.90
2015,06,04,16,50,628.20
2015,06,04,16,51,626.00
2015,06,04,16,52,626.00
2015,06,04,16,53,626.00
2015,06,04,16,54,624.50
2015,06,04,16,55,609.60
2015,06,04,16,56,608.00
2015,06,04,16,57,608.00
2015,06,04,16,58,542.30
2015,06,04,16,59,462.00
2015,06,04,17,00,230.00
2015,06,04,17,01,114.00
2015,06,04,17,02,567.20
2015,06,04,17,03,591.00
2015,06,04,17,04,591.00
2015,06,04,17,05,591.00
2015,06,04,17,06,591.00
2015,06,04,17,07,304.70